{"data":{"norad_id":65197,"epoch":"2026-05-25T02:42:07.237728Z","epoch_age_seconds":64656,"freshness":"FRESH","line1":"1 65197U 25175Z   26145.11258377  .00003591  00000+0  25272-3 0  9998","line2":"2 65197  97.4526  17.6685 0002549  78.1911 281.9602 15.05659608 44149","mean_motion":15.05659608,"eccentricity":0.0002549,"inclination_deg":97.4526,"raan_deg":17.6685,"arg_perigee_deg":78.1911,"mean_anomaly_deg":281.9602,"bstar":0.00025272,"rev_number":4414,"period_min":95.639146613808,"perigee_km":547.71583260619,"apogee_km":551.24753261058,"semimajor_km":6927.6186826084,"source":"CELESTRAK","updated_at":"2026-05-25T13:38:20.717140Z"}}